| time (UTC) | temp C | wind direction | speed KPH | gust KPH | rain 1hr cm | rain 24hr cm | rain mn cm | humidity % | barometer mb |
| 20260504081517 | 22 | 262 | 0.0 | 17.7 | 0.00 | 0.00 | 0.00 | 48 | 1020.1 |
| 20260504050117 | 15 | 315 | 0.0 | 1.6 | 0.00 | 0.00 | 0.00 | 66 | 1019.8 |
| 20260504044548 | 15 | 283 | 0.0 | 0.0 | 0.00 | 0.00 | 0.00 | 68 | 1019.7 |
| 20260504043052 | 15 | 279 | 0.0 | 1.6 | 0.00 | 0.00 | 0.00 | 68 | 1019.6 |
| 20260504041547 | 15 | 281 | 1.6 | 12.9 | 0.00 | 0.00 | 0.00 | 68 | 1019.4 |
| 20260504040046 | 15 | 288 | 8.0 | 17.7 | 0.00 | 0.00 | 0.00 | 67 | 1019.4 |
| 20260504034551 | 15 | 271 | 8.0 | 19.3 | 0.00 | 0.00 | 0.00 | 66 | 1019.3 |
| 20260504033046 | 15 | 268 | 11.3 | 20.9 | 0.00 | 0.00 | 0.00 | 67 | 1019.4 |
| 20260504031602 | 15 | 257 | 3.2 | 19.3 | 0.00 | 0.00 | 0.00 | 68 | 1019.5 |
| 20260504030043 | 14 | 273 | 6.4 | 14.5 | 0.00 | 0.00 | 0.00 | 69 | 1019.6 |
| 20260504024543 | 14 | 256 | 9.7 | 22.5 | 0.00 | 0.00 | 0.00 | 71 | 1019.7 |
| 20260504023038 | 14 | 265 | 11.3 | 20.9 | 0.00 | 0.00 | 0.00 | 72 | 1019.9 |
| 20260504021533 | 14 | 287 | 0.0 | 0.0 | 0.00 | 0.00 | 0.00 | 73 | 1019.8 |
| 20260504020038 | 15 | 265 | 0.0 | 0.0 | 0.00 | 0.00 | 0.00 | 73 | 1019.8 |
| 20260504014533 | 15 | 272 | 0.0 | 0.0 | 0.00 | 0.00 | 0.00 | 73 | 1019.7 |
| 20260504013031 | 15 | 276 | 0.0 | 0.0 | 0.00 | 0.00 | 0.00 | 72 | 1019.6 |
| 20260504011529 | 15 | 281 | 0.0 | 0.0 | 0.00 | 0.00 | 0.00 | 72 | 1019.6 |
| 20260504010028 | 15 | 285 | 0.0 | 0.0 | 0.00 | 0.00 | 0.00 | 71 | 1019.7 |
| 20260504004529 | 15 | 290 | 0.0 | 0.0 | 0.00 | 0.00 | 0.00 | 71 | 1019.8 |
| 20260504003027 | 15 | 288 | 0.0 | 0.0 | 0.00 | 0.00 | 0.00 | 71 | 1019.8 |
| 20260504001525 | 15 | 290 | 0.0 | 0.0 | 0.00 | 0.00 | 0.00 | 72 | 1019.9 |
| 20260504000024 | 15 | 276 | 0.0 | 0.0 | 0.00 | 0.00 | 0.00 | 73 | 1020.0 |
| 20260503234526 | 15 | 330 | 0.0 | 0.0 | 0.00 | 0.00 | 0.00 | 74 | 1020.2 |
| 20260503233019 | 15 | 312 | 0.0 | 0.0 | 0.00 | 0.00 | 0.00 | 74 | 1020.4 |
| 20260503231520 | 15 | 289 | 0.0 | 0.0 | 0.00 | 0.00 | 0.00 | 74 | 1020.5 |
| 20260503230022 | 15 | 286 | 0.0 | 0.0 | 0.00 | 0.00 | 0.00 | 74 | 1020.6 |
| 20260503224515 | 16 | 319 | 0.0 | 0.0 | 0.00 | 0.00 | 0.00 | 74 | 1020.7 |
| 20260503223022 | 16 | 317 | 0.0 | 0.0 | 0.00 | 0.00 | 0.00 | 73 | 1020.7 |
| 20260503221514 | 16 | 315 | 0.0 | 0.0 | 0.00 | 0.00 | 0.00 | 73 | 1020.7 |
| 20260503220012 | 16 | 271 | 0.0 | 3.2 | 0.00 | 0.00 | 0.00 | 72 | 1020.7 |
| 20260503214510 | 16 | 277 | 0.0 | 3.2 | 0.00 | 0.00 | 0.00 | 72 | 1020.7 |
| 20260503213010 | 16 | 275 | 0.0 | 0.0 | 0.00 | 0.00 | 0.00 | 70 | 1020.5 |
| 20260503211516 | 16 | 275 | 0.0 | 0.0 | 0.00 | 0.00 | 0.00 | 69 | 1020.3 |
| 20260503210015 | 17 | 275 | 0.0 | 1.6 | 0.00 | 0.00 | 0.00 | 68 | 1020.3 |
| 20260503204506 | 17 | 295 | 0.0 | 14.5 | 0.00 | 0.00 | 0.00 | 66 | 1020.4 |
| 20260503203012 | 17 | 275 | 0.0 | 0.0 | 0.00 | 0.00 | 0.00 | 62 | 1020.4 |
| 20260503201509 | 17 | 296 | 0.0 | 0.0 | 0.00 | 0.00 | 0.00 | 61 | 1020.3 |
| 20260503200005 | 17 | 251 | 0.0 | 0.0 | 0.00 | 0.00 | 0.00 | 61 | 1020.2 |
| 20260503194506 | 17 | 248 | 0.0 | 0.0 | 0.00 | 0.00 | 0.00 | 61 | 1020.2 |
| 20260503193006 | 18 | 246 | 0.0 | 0.0 | 0.00 | 0.00 | 0.00 | 61 | 1020.1 |
| 20260503191502 | 18 | 256 | 0.0 | 0.0 | 0.00 | 0.00 | 0.00 | 61 | 1020.0 |
| 20260503190004 | 18 | 240 | 0.0 | 0.0 | 0.00 | 0.00 | 0.00 | 61 | 1019.9 |
| 20260503184502 | 18 | 269 | 0.0 | 0.0 | 0.00 | 0.00 | 0.00 | 60 | 1019.7 |
| 20260503183000 | 18 | 228 | 0.0 | 0.0 | 0.00 | 0.00 | 0.00 | 59 | 1019.5 |
| 20260503181606 | 18 | 202 | 0.0 | 0.0 | 0.00 | 0.00 | 0.00 | 59 | 1019.4 |
| 20260503180100 | 18 | 185 | 0.0 | 0.0 | 0.00 | 0.00 | 0.00 | 60 | 1019.3 |
| 20260503174618 | 18 | 181 | 0.0 | 0.0 | 0.00 | 0.00 | 0.00 | 59 | 1019.2 |
| 20260503173131 | 18 | 147 | 0.0 | 0.0 | 0.00 | 0.00 | 0.00 | 57 | 1019.2 |
| 20260503171558 | 18 | 126 | 0.0 | 0.0 | 0.00 | 0.00 | 0.00 | 56 | 1019.1 |